SKYSAT-C11

Last updated on Tue Dec 09 2025 00:02:31 GMT+0000 (Coordinated Universal Time)

1 42987U 17068A 25342.34656889 .00027139 00000+0 53514-3 0 9999 2 42987 97.4146 119.7309 0000929 106.2293 253.9059 15.47170930453637
UTC large
Height (km)
Speed (km/s)
/
Latitude / Longitude
Inclination (degrees)
Orbital Period (minutes)
Azimuth
Elevation
Range (km)
Doppler Factor

Next 0 passes for location: London (51.5072 / 0.1276)

Sorry there are no passes over London.